When you browse on this site, cookies collect data to enhance your experience and personalize the content and advertising you see.
Visit our Privacy Policy to learn more. By continuing to use the site, you agree to this use of cookies and data.
  • In Spain
  • List of Countries
  • For 7 days
  • Water Temperature
  • Satellite Maps
  • Weather Map
  • Weather Widgets
  • user-avatar
    Login

    Hourly Weather Ordino

    Today, 20 January, Sunday

    Time Temperature Precipitation Wind Pressure Humidity
    00:00 -4°C° 0 mm 2 mps 624 mmHg 79%
    01:00 -2°C° 0.2 mm 1 mps 624 mmHg 83%
    02:00 -1°C° 0.2 mm 1 mps 624 mmHg 86%
    03:00 -1°C° 0.2 mm 1 mps 624 mmHg 89%
    04:00 -1°C° 0.1 mm 1 mps 624 mmHg 87%
    05:00 -1°C° 0.1 mm 1 mps 624 mmHg 86%
    06:00 -1°C° 0.1 mm 1 mps 624 mmHg 84%
    07:00 -1°C° 0 mm 1 mps 624 mmHg 79%
    08:00 -2°C° 0 mm 2 mps 625 mmHg 75%
    09:00 -2°C° 0 mm 2 mps 625 mmHg 70%
    10:00 -1°C° 0 mm 2 mps 626 mmHg 65%
    11:00 +1°C° 0 mm 2 mps 626 mmHg 60%
    12:00 +2°C° 0 mm 2 mps 626 mmHg 54%
    13:00 +1°C° 0 mm 3 mps 626 mmHg 57%
    14:00 0°C° 0 mm 3 mps 626 mmHg 60%
    15:00 0°C° 0 mm 3 mps 626 mmHg 63%
    16:00 -1°C° 0 mm 2 mps 626 mmHg 71%
    17:00 -3°C° 0 mm 2 mps 626 mmHg 80%
    18:00 -4°C° 0 mm 2 mps 626 mmHg 88%
    19:00 -4°C° 0.1 mm 2 mps 626 mmHg 88%
    20:00 -4°C° 0.1 mm 2 mps 627 mmHg 88%
    21:00 -4°C° 0.1 mm 2 mps 627 mmHg 88%
    22:00 -4°C° 0 mm 2 mps 628 mmHg 88%
    23:00 -4°C° 0 mm 2 mps 628 mmHg 88%

    Tomorrow, 21 January, Monday

    Time Temperature Precipitation Wind Pressure Humidity
    00:00 -4°C° 0 mm 2 mps 628 mmHg 87%
    01:00 -4°C° 0.1 mm 2 mps 628 mmHg 87%
    02:00 -4°C° 0.1 mm 2 mps 628 mmHg 88%
    03:00 -4°C° 0.1 mm 2 mps 628 mmHg 88%
    04:00 -5°C° 0.1 mm 2 mps 628 mmHg 88%
    05:00 -5°C° 0.1 mm 2 mps 628 mmHg 88%
    06:00 -5°C° 0.1 mm 2 mps 628 mmHg 88%
    07:00 -5°C° 0.2 mm 3 mps 629 mmHg 85%
    08:00 -5°C° 0.2 mm 3 mps 629 mmHg 82%
    09:00 -4°C° 0.2 mm 3 mps 630 mmHg 79%
    10:00 -4°C° 0.1 mm 3 mps 630 mmHg 76%
    11:00 -4°C° 0.1 mm 3 mps 630 mmHg 72%
    12:00 -2°C° 0.1 mm 3 mps 630 mmHg 69%
    13:00 -2°C° 0.1 mm 3 mps 630 mmHg 69%
    14:00 -2°C° 0.1 mm 3 mps 630 mmHg 69%
    15:00 -2°C° 0.1 mm 3 mps 630 mmHg 69%
    16:00 -5°C° 0 mm 3 mps 629 mmHg 75%
    17:00 -5°C° 0 mm 2 mps 629 mmHg 81%
    18:00 -6°C° 0 mm 2 mps 629 mmHg 87%
    19:00 -7°C° 0 mm 2 mps 629 mmHg 87%
    20:00 -7°C° 0 mm 2 mps 629 mmHg 87%
    21:00 -7°C° 0 mm 2 mps 629 mmHg 87%
    22:00 -8°C° 0 mm 2 mps 629 mmHg 86%
    23:00 -8°C° 0 mm 2 mps 629 mmHg 85%

    Day after tomorrow, 22 January, Tuesday

    Time Temperature Precipitation Wind Pressure Humidity
    00:00 -9°C° 0 mm 2 mps 628 mmHg 84%
    01:00 -9°C° 0 mm 2 mps 628 mmHg 77%
    02:00 -9°C° 0 mm 2 mps 628 mmHg 71%
    03:00 -9°C° 0 mm 2 mps 627 mmHg 64%
    04:00 -9°C° 0 mm 2 mps 627 mmHg 61%
    05:00 -9°C° 0 mm 2 mps 626 mmHg 57%
    06:00 -9°C° 0 mm 2 mps 626 mmHg 53%
    07:00 -7°C° 0 mm 1 mps 626 mmHg 50%
    08:00 -4°C° 0 mm 1 mps 626 mmHg 48%
    09:00 -3°C° 0 mm 1 mps 626 mmHg 45%
    10:00 -1°C° 0 mm 1 mps 626 mmHg 42%
    11:00 +1°C° 0 mm 1 mps 626 mmHg 40%
    12:00 +3°C° 0 mm 1 mps 626 mmHg 38%
    13:00 +1°C° 0.4 mm 1 mps 624 mmHg 51%
    14:00 0°C° 0.4 mm 1 mps 623 mmHg 65%
    15:00 -1°C° 0.4 mm 1 mps 622 mmHg 79%
    16:00 -4°C° 0.6 mm 2 mps 621 mmHg 82%
    17:00 -4°C° 0.6 mm 2 mps 621 mmHg 85%
    18:00 -4°C° 0.6 mm 2 mps 620 mmHg 89%
    19:00 -6°C° 0.7 mm 3 mps 620 mmHg 89%
    20:00 -6°C° 0.7 mm 3 mps 620 mmHg 89%
    21:00 -7°C° 0.7 mm 3 mps 620 mmHg 89%
    22:00 -7°C° 1.1 mm 3 mps 620 mmHg 90%
    23:00 -9°C° 1.1 mm 4 mps 619 mmHg 91%

    23 January, Wednesday

    Time Temperature Precipitation Wind Pressure Humidity
    00:00 -10°C° 1.1 mm 4 mps 619 mmHg 92%
    01:00 -10°C° 0.8 mm 4 mps 618 mmHg 91%
    02:00 -11°C° 0.8 mm 4 mps 618 mmHg 91%
    03:00 -12°C° 0.8 mm 5 mps 617 mmHg 91%
    04:00 -12°C° 0.5 mm 5 mps 617 mmHg 90%
    05:00 -14°C° 0.5 mm 6 mps 617 mmHg 90%
    06:00 -14°C° 0.5 mm 6 mps 617 mmHg 90%
    07:00 -14°C° 0.3 mm 6 mps 617 mmHg 88%
    08:00 -14°C° 0.3 mm 6 mps 618 mmHg 87%
    09:00 -14°C° 0.3 mm 7 mps 618 mmHg 85%
    10:00 -14°C° 0.3 mm 7 mps 618 mmHg 85%
    11:00 -13°C° 0.3 mm 7 mps 618 mmHg 84%
    12:00 -13°C° 0.3 mm 7 mps 618 mmHg 83%
    13:00 -13°C° 0.4 mm 7 mps 618 mmHg 84%
    14:00 -13°C° 0.4 mm 7 mps 618 mmHg 85%
    15:00 -13°C° 0.4 mm 8 mps 617 mmHg 85%
    16:00 -13°C° 0.4 mm 8 mps 618 mmHg 86%
    17:00 -15°C° 0.4 mm 8 mps 618 mmHg 87%
    18:00 -15°C° 0.4 mm 8 mps 618 mmHg 88%
    19:00 -14°C° 0.3 mm 7 mps 619 mmHg 88%
    20:00 -14°C° 0.3 mm 7 mps 619 mmHg 89%
    21:00 -14°C° 0.3 mm 7 mps 620 mmHg 89%
    22:00 -14°C° 0.2 mm 7 mps 620 mmHg 88%
    23:00 -14°C° 0.2 mm 7 mps 620 mmHg 88%

    24 January, Thursday

    Time Temperature Precipitation Wind Pressure Humidity
    00:00 -14°C° 0.2 mm 6 mps 620 mmHg 87%
    01:00 -15°C° 0 mm 6 mps 620 mmHg 87%
    02:00 -15°C° 0 mm 6 mps 620 mmHg 86%
    03:00 -14°C° 0 mm 5 mps 620 mmHg 86%
    04:00 -14°C° 0 mm 5 mps 621 mmHg 86%
    05:00 -15°C° 0 mm 5 mps 621 mmHg 86%
    06:00 -15°C° 0 mm 5 mps 621 mmHg 86%
    07:00 -14°C° 0 mm 5 mps 622 mmHg 83%
    08:00 -14°C° 0 mm 5 mps 622 mmHg 81%
    09:00 -12°C° 0 mm 4 mps 623 mmHg 79%
    10:00 -11°C° 0 mm 4 mps 624 mmHg 76%
    11:00 -10°C° 0 mm 4 mps 624 mmHg 74%
    12:00 -10°C° 0 mm 5 mps 624 mmHg 72%
    13:00 -9°C° 0 mm 4 mps 624 mmHg 70%
    14:00 -9°C° 0 mm 4 mps 624 mmHg 69%
    15:00 -9°C° 0 mm 4 mps 623 mmHg 68%
    16:00 -11°C° 0 mm 4 mps 623 mmHg 71%
    17:00 -14°C° 0 mm 3 mps 622 mmHg 75%
    18:00 -16°C° 0 mm 3 mps 622 mmHg 79%
    19:00 -15°C° 0.1 mm 3 mps 622 mmHg 81%
    20:00 -14°C° 0.1 mm 3 mps 623 mmHg 84%
    21:00 -13°C° 0.1 mm 3 mps 623 mmHg 86%
    22:00 -10°C° 0.4 mm 3 mps 624 mmHg 87%
    23:00 -9°C° 0.4 mm 3 mps 624 mmHg 88%

    25 January, Friday

    Time Temperature Precipitation Wind Pressure Humidity
    00:00 -8°C° 0.4 mm 3 mps 624 mmHg 88%
    01:00 -7°C° 0.4 mm 3 mps 624 mmHg 88%
    02:00 -8°C° 0.4 mm 4 mps 624 mmHg 88%
    03:00 -7°C° 0.4 mm 4 mps 624 mmHg 88%
    04:00 -8°C° 0.3 mm 5 mps 625 mmHg 88%
    05:00 -8°C° 0.3 mm 5 mps 625 mmHg 88%
    06:00 -8°C° 0.3 mm 5 mps 625 mmHg 88%
    07:00 -8°C° 0.1 mm 5 mps 626 mmHg 86%
    08:00 -8°C° 0.1 mm 5 mps 626 mmHg 84%
    09:00 -9°C° 0.1 mm 6 mps 627 mmHg 83%
    10:00 -8°C° 0 mm 5 mps 627 mmHg 81%
    11:00 -7°C° 0 mm 5 mps 627 mmHg 80%
    12:00 -7°C° 0 mm 5 mps 628 mmHg 78%
    13:00 -7°C° 0 mm 5 mps 628 mmHg 78%
    14:00 -7°C° 0 mm 5 mps 628 mmHg 78%
    15:00 -7°C° 0 mm 5 mps 628 mmHg 77%
    16:00 -9°C° 0 mm 4 mps 628 mmHg 80%
    17:00 -10°C° 0 mm 4 mps 628 mmHg 82%
    18:00 -12°C° 0 mm 4 mps 628 mmHg 85%
    19:00 -12°C° 0 mm 4 mps 628 mmHg 84%
    20:00 -12°C° 0 mm 3 mps 629 mmHg 83%
    21:00 -13°C° 0 mm 3 mps 629 mmHg 82%
    22:00 -13°C° 0 mm 3 mps 629 mmHg 79%
    23:00 -13°C° 0 mm 3 mps 629 mmHg 77%
    Show more